TimeEDT,TemperatureF,Dew PointF,Humidity,Sea Level PressureIn,VisibilityMPH,Wind Direction,Wind SpeedMPH,Gust SpeedMPH,PrecipitationIn,Events,Conditions,WindDirDegrees,DateUTC
12:51 AM,64.9,59.0,81,30.09,10.0,SSW,4.6,-,N/A,,Partly Cloudy,210,2013-08-19 04:51:00
1:51 AM,64.9,57.9,78,30.08,10.0,SSW,6.9,-,N/A,,Mostly Cloudy,200,2013-08-19 05:51:00
2:51 AM,63.0,57.0,81,30.07,10.0,SSE,3.5,-,N/A,,Scattered Clouds,160,2013-08-19 06:51:00
3:51 AM,61.0,57.0,87,30.07,10.0,Calm,Calm,-,N/A,,Mostly Cloudy,0,2013-08-19 07:51:00
4:51 AM,60.1,57.9,93,30.07,10.0,SSE,4.6,-,N/A,,Scattered Clouds,150,2013-08-19 08:51:00
5:51 AM,61.0,57.9,90,30.08,10.0,Calm,Calm,-,N/A,,Mostly Cloudy,0,2013-08-19 09:51:00
6:51 AM,61.0,57.9,90,30.08,10.0,South,4.6,-,N/A,,Mostly Cloudy,180,2013-08-19 10:51:00
7:51 AM,66.0,59.0,78,30.08,10.0,Calm,Calm,-,N/A,,Mostly Cloudy,0,2013-08-19 11:51:00
8:51 AM,70.0,61.0,73,30.07,10.0,South,3.5,-,N/A,,Scattered Clouds,170,2013-08-19 12:51:00
9:51 AM,73.9,61.0,64,30.05,10.0,Calm,Calm,-,N/A,,Scattered Clouds,0,2013-08-19 13:51:00
10:51 AM,78.1,60.1,54,30.04,10.0,WNW,6.9,-,N/A,,Mostly Cloudy,300,2013-08-19 14:51:00
11:51 AM,79.0,57.9,48,30.04,10.0,West,10.4,-,N/A,,Overcast,270,2013-08-19 15:51:00
12:51 PM,80.1,59.0,48,30.03,10.0,West,8.1,-,N/A,,Overcast,270,2013-08-19 16:51:00
1:51 PM,80.1,57.9,47,30.01,10.0,West,9.2,-,N/A,,Overcast,280,2013-08-19 17:51:00
2:51 PM,80.1,57.0,45,30.01,10.0,WNW,6.9,-,N/A,,Overcast,300,2013-08-19 18:51:00
3:51 PM,78.1,57.9,50,30.00,10.0,WNW,9.2,-,N/A,,Overcast,300,2013-08-19 19:51:00
4:51 PM,77.0,59.0,54,29.99,10.0,West,5.8,-,N/A,,Overcast,280,2013-08-19 20:51:00
5:51 PM,77.0,60.1,56,30.00,10.0,West,6.9,-,N/A,,Overcast,270,2013-08-19 21:51:00
6:51 PM,75.0,61.0,62,30.00,10.0,SW,5.8,-,N/A,,Overcast,220,2013-08-19 22:51:00
7:51 PM,73.0,62.1,68,29.99,10.0,SSW,6.9,-,N/A,,Overcast,210,2013-08-19 23:51:00
8:51 PM,72.0,62.1,71,30.00,10.0,SW,4.6,-,N/A,,Overcast,220,2013-08-20 00:51:00
9:51 PM,71.1,63.0,75,30.01,10.0,SW,3.5,-,N/A,,Mostly Cloudy,230,2013-08-20 01:51:00
10:51 PM,70.0,63.0,78,30.01,10.0,South,4.6,-,N/A,,Mostly Cloudy,190,2013-08-20 02:51:00
11:51 PM,69.1,63.0,81,30.02,10.0,Calm,Calm,-,N/A,,Mostly Cloudy,0,2013-08-20 03:51:00